• In Uzbekistan
  • List of Countries
  • For 7 days
  • Water Temperature
  • Satellite Maps
  • Weather Map
  • Weather Widgets
  • user-avatar
    Login

    Hourly Weather Mide

    Today, 16 October, Tuesday

    Time Temperature Precipitation Wind Pressure Humidity
    00:00 +25°C° 0.9 mm 2 mps 730 mmHg 50%
    01:00 +24°C° 0.9 mm 3 mps 730 mmHg 53%
    02:00 +24°C° 0.6 mm 3 mps 730 mmHg 54%
    03:00 +24°C° 0.6 mm 3 mps 730 mmHg 55%
    04:00 +24°C° 0.6 mm 3 mps 730 mmHg 56%
    05:00 +24°C° 0.2 mm 3 mps 730 mmHg 55%
    06:00 +24°C° 0.2 mm 3 mps 730 mmHg 55%
    07:00 +22°C° 0.2 mm 3 mps 730 mmHg 55%
    08:00 +24°C° 0.4 mm 3 mps 730 mmHg 52%
    09:00 +25°C° 0.4 mm 3 mps 731 mmHg 49%
    10:00 +26°C° 0.4 mm 2 mps 731 mmHg 46%
    11:00 +26°C° 0.1 mm 3 mps 731 mmHg 44%
    12:00 +27°C° 0.1 mm 3 mps 731 mmHg 41%
    13:00 +28°C° 0.1 mm 3 mps 730 mmHg 39%
    14:00 +28°C° 0.1 mm 3 mps 730 mmHg 39%
    15:00 +28°C° 0.1 mm 4 mps 729 mmHg 39%
    16:00 +28°C° 0.1 mm 4 mps 729 mmHg 40%
    17:00 +27°C° 0 mm 5 mps 729 mmHg 41%
    18:00 +27°C° 0 mm 5 mps 729 mmHg 42%
    19:00 +26°C° 0 mm 5 mps 729 mmHg 43%
    20:00 +26°C° 0 mm 5 mps 729 mmHg 47%
    21:00 +24°C° 0 mm 6 mps 729 mmHg 50%
    22:00 +24°C° 0 mm 6 mps 729 mmHg 54%
    23:00 +23°C° 0 mm 7 mps 729 mmHg 59%

    Tomorrow, 17 October, Wednesday

    Time Temperature Precipitation Wind Pressure Humidity
    00:00 +23°C° 0 mm 7 mps 728 mmHg 64%
    01:00 +23°C° 0 mm 7 mps 728 mmHg 69%
    02:00 +22°C° 0 mm 7 mps 727 mmHg 69%
    03:00 +22°C° 0 mm 7 mps 727 mmHg 70%
    04:00 +22°C° 0 mm 7 mps 727 mmHg 71%
    05:00 +22°C° 0.1 mm 8 mps 726 mmHg 73%
    06:00 +22°C° 0.1 mm 8 mps 726 mmHg 74%
    07:00 +22°C° 0.1 mm 8 mps 726 mmHg 76%
    08:00 +23°C° 0.1 mm 9 mps 726 mmHg 73%
    09:00 +23°C° 0.1 mm 10 mps 726 mmHg 70%
    10:00 +24°C° 0.1 mm 11 mps 726 mmHg 67%
    11:00 +26°C° 0.1 mm 11 mps 725 mmHg 62%
    12:00 +27°C° 0.1 mm 12 mps 725 mmHg 57%
    13:00 +28°C° 0.1 mm 12 mps 724 mmHg 53%
    14:00 +28°C° 0.8 mm 12 mps 724 mmHg 53%
    15:00 +28°C° 0.8 mm 12 mps 723 mmHg 53%
    16:00 +28°C° 0.8 mm 12 mps 722 mmHg 53%
    17:00 +27°C° 0.3 mm 11 mps 722 mmHg 56%
    18:00 +26°C° 0.3 mm 11 mps 722 mmHg 60%
    19:00 +26°C° 0.3 mm 11 mps 722 mmHg 63%
    20:00 +24°C° 0.6 mm 11 mps 723 mmHg 63%
    21:00 +24°C° 0.6 mm 10 mps 723 mmHg 63%
    22:00 +24°C° 0.6 mm 10 mps 723 mmHg 62%
    23:00 +23°C° 0.7 mm 8 mps 723 mmHg 65%

    Day after tomorrow, 18 October, Thursday

    Time Temperature Precipitation Wind Pressure Humidity
    00:00 +23°C° 0.7 mm 7 mps 722 mmHg 68%
    01:00 +22°C° 0.7 mm 6 mps 722 mmHg 70%
    02:00 +22°C° 0.2 mm 5 mps 721 mmHg 72%
    03:00 +22°C° 0.2 mm 4 mps 721 mmHg 74%
    04:00 +21°C° 0.2 mm 4 mps 721 mmHg 76%
    05:00 +21°C° 0.1 mm 3 mps 721 mmHg 75%
    06:00 +21°C° 0.1 mm 3 mps 721 mmHg 75%
    07:00 +21°C° 0.1 mm 2 mps 721 mmHg 75%
    08:00 +21°C° 0 mm 2 mps 721 mmHg 71%
    09:00 +22°C° 0 mm 3 mps 722 mmHg 66%
    10:00 +24°C° 0 mm 3 mps 722 mmHg 61%
    11:00 +25°C° 0 mm 2 mps 722 mmHg 59%
    12:00 +25°C° 0 mm 2 mps 722 mmHg 56%
    13:00 +26°C° 0 mm 2 mps 722 mmHg 53%
    14:00 +26°C° 0.2 mm 2 mps 722 mmHg 52%
    15:00 +27°C° 0.2 mm 2 mps 722 mmHg 50%
    16:00 +27°C° 0.2 mm 2 mps 722 mmHg 48%
    17:00 +27°C° 0.1 mm 2 mps 722 mmHg 49%
    18:00 +26°C° 0.1 mm 2 mps 723 mmHg 50%
    19:00 +26°C° 0.1 mm 2 mps 723 mmHg 51%
    20:00 +26°C° 0 mm 2 mps 724 mmHg 52%
    21:00 +25°C° 0 mm 2 mps 724 mmHg 54%
    22:00 +25°C° 0 mm 2 mps 725 mmHg 55%
    23:00 +24°C° 0 mm 2 mps 725 mmHg 57%

    19 October, Friday

    Time Temperature Precipitation Wind Pressure Humidity
    00:00 +24°C° 0 mm 2 mps 725 mmHg 58%
    01:00 +24°C° 0 mm 2 mps 725 mmHg 59%
    02:00 +23°C° 0 mm 1 mps 725 mmHg 60%
    03:00 +23°C° 0 mm 1 mps 725 mmHg 61%
    04:00 +23°C° 0 mm 1 mps 726 mmHg 62%
    05:00 +22°C° 0 mm 1 mps 726 mmHg 63%
    06:00 +22°C° 0 mm 1 mps 727 mmHg 63%
    07:00 +22°C° 0 mm 1 mps 727 mmHg 64%
    08:00 +23°C° 0 mm 1 mps 728 mmHg 59%
    09:00 +24°C° 0 mm 1 mps 728 mmHg 54%
    10:00 +25°C° 0 mm 1 mps 729 mmHg 50%
    11:00 +26°C° 0 mm 1 mps 729 mmHg 46%
    12:00 +27°C° 0 mm 1 mps 729 mmHg 43%
    13:00 +28°C° 0 mm 1 mps 729 mmHg 40%
    14:00 +28°C° 0 mm 1 mps 729 mmHg 38%
    15:00 +28°C° 0 mm 1 mps 729 mmHg 37%
    16:00 +28°C° 0 mm 1 mps 729 mmHg 35%
    17:00 +28°C° 0 mm 1 mps 730 mmHg 38%
    18:00 +27°C° 0 mm 1 mps 730 mmHg 41%
    19:00 +27°C° 0 mm 1 mps 731 mmHg 43%
    20:00 +26°C° 0 mm 1 mps 731 mmHg 45%
    21:00 +26°C° 0 mm 1 mps 731 mmHg 47%
    22:00 +23°C° 0 mm 0 mps 732 mmHg 49%
    23:00 +25°C° 0 mm 1 mps 732 mmHg 50%

    20 October, Saturday

    Time Temperature Precipitation Wind Pressure Humidity
    00:00 +25°C° 0 mm 1 mps 732 mmHg 51%
    01:00 +24°C° 0 mm 2 mps 732 mmHg 52%
    02:00 +24°C° 0 mm 2 mps 732 mmHg 57%
    03:00 +22°C° 0 mm 3 mps 732 mmHg 62%
    04:00 +22°C° 0 mm 3 mps 732 mmHg 67%
    05:00 +22°C° 0 mm 4 mps 732 mmHg 70%
    06:00 +21°C° 0 mm 4 mps 732 mmHg 73%
    07:00 +21°C° 0 mm 4 mps 733 mmHg 76%
    08:00 +22°C° 0 mm 4 mps 733 mmHg 69%
    09:00 +23°C° 0 mm 4 mps 734 mmHg 63%
    10:00 +26°C° 0 mm 4 mps 734 mmHg 56%
    11:00 +26°C° 0 mm 4 mps 734 mmHg 52%
    12:00 +27°C° 0 mm 4 mps 734 mmHg 48%
    13:00 +28°C° 0 mm 4 mps 733 mmHg 44%
    14:00 +28°C° 0 mm 4 mps 733 mmHg 43%
    15:00 +28°C° 0 mm 4 mps 733 mmHg 42%
    16:00 +29°C° 0 mm 4 mps 732 mmHg 41%
    17:00 +28°C° 0 mm 4 mps 732 mmHg 44%
    18:00 +27°C° 0 mm 4 mps 733 mmHg 47%
    19:00 +26°C° 0 mm 4 mps 733 mmHg 50%
    20:00 +26°C° 0 mm 4 mps 733 mmHg 53%
    21:00 +25°C° 0 mm 4 mps 733 mmHg 56%
    22:00 +25°C° 0 mm 4 mps 733 mmHg 59%
    23:00 +23°C° 0 mm 4 mps 733 mmHg 62%

    21 October, Sunday

    Time Temperature Precipitation Wind Pressure Humidity
    00:00 +24°C° 0 mm 3 mps 733 mmHg 65%
    01:00 +22°C° 0 mm 3 mps 733 mmHg 68%
    02:00 +22°C° 0 mm 3 mps 733 mmHg 70%
    03:00 +21°C° 0 mm 4 mps 733 mmHg 72%
    04:00 +21°C° 0 mm 4 mps 732 mmHg 74%
    05:00 +21°C° 0 mm 4 mps 732 mmHg 75%
    06:00 +21°C° 0 mm 3 mps 733 mmHg 76%
    07:00 +20°C° 0 mm 3 mps 733 mmHg 77%
    08:00 +22°C° 0 mm 4 mps 733 mmHg 69%
    09:00 +23°C° 0 mm 4 mps 733 mmHg 61%
    10:00 +25°C° 0 mm 4 mps 733 mmHg 54%
    11:00 +26°C° 0 mm 4 mps 733 mmHg 48%
    12:00 +27°C° 0 mm 4 mps 733 mmHg 43%
    13:00 +28°C° 0 mm 4 mps 733 mmHg 38%
    14:00 +28°C° 0 mm 4 mps 733 mmHg 37%
    15:00 +29°C° 0 mm 4 mps 732 mmHg 36%
    16:00 +29°C° 0 mm 4 mps 732 mmHg 34%
    17:00 +28°C° 0 mm 3 mps 732 mmHg 38%
    18:00 +27°C° 0 mm 3 mps 732 mmHg 42%
    19:00 +26°C° 0 mm 3 mps 733 mmHg 46%
    20:00 +26°C° 0 mm 3 mps 733 mmHg 50%
    21:00 +25°C° 0 mm 2 mps 733 mmHg 54%
    22:00 +25°C° 0 mm 2 mps 733 mmHg 58%
    23:00 +24°C° 0 mm 2 mps 733 mmHg 61%
    Show more